Location: Unspecified
(0.0000°N, 0.0000°E)
Time: 17:58:09
(UTC+00:00)

STARLINK 1054 - Pass Details

Date: 19 January 2020
Orbit: 548 x 551 km, 53.0° (Epoch: 17 January)

Event Time Altitude Azimuth Distance (km) Brightness Sun altitude
Rises 18:49:33 0° 292° (WNW) 2,703 7.9 -9.1°
Reaches altitude 10° 18:52:46 10° 266° (W) 1,814 7.7 -9.9°
Maximum altitude 18:54:51 14° 235° (SW) 1,598 7.3 -10.3°
Drops below altitude 10° 18:56:56 10° 204° (SSW) 1,818 7.0 -10.8°
Sets 19:00:11 0° 178° (S) 2,714 7.4 -11.6°
